Terminal Aerodrome Forecast
Issued by NWS Rapid City, SD

Home | Current Version | Previous Version | Graphics & Text | Print | Product List | Glossary On
Versions: 1 2 3 4 5 6 7 8 9 10 11 12 13 14 15 16
000
FTUS43 KUNR 272320
TAFRAP
TAF
KRAP 272320Z 2800/2824 17010KT P6SM BKN120
      TEMPO 2800/2802 VRB30G45KT 2SM TSRAGS BKN040CB
     FM280200 32020G30KT P6SM SCT100=

USA.gov is the U.S. government's official web portal to all federal, state and local government web resources and services.